SB KEPS @ AMSAT $ORB26178.1 2Line Orbital Elements 26178.AMSAT QST de W1STR AMSAT Orbital Elements for Amateur Satellites in TLE Format From Orbital Analysis Office New England Sci-Tech STEM Education Center Natick MA June 27, 2026 To all radio amateurs These element sets describe the orbits of various satellites in use by the amateur radio community. For details see: www.amsat.org/keplerian-elements-formats/ A daily update of element sets is available at: www.amsat.org/tle/daily-bulletin.txt or without bulletin text: www.amsat.org/tle/dailytle.txt AO-07 1 07530U 74089B 26178.03954676 -.00000030 00000-0 10421-3 0 9992 2 07530 101.9899 191.3888 0012643 111.8939 316.9685 12.53698230361759 UO-11 1 14781U 84021B 26178.15510200 .00001195 00000-0 12712-3 0 9996 2 14781 97.8062 143.6186 0008498 141.6866 218.4958 14.90807044258611 LO-19 1 20442U 90005G 26178.29842016 .00000122 00000-0 60289-4 0 9996 2 20442 98.8847 200.3825 0011712 171.1543 188.9849 14.34126057903846 AO-27 1 22825U 93061C 26178.13882514 .00000087 00000-0 50002-4 0 9990 2 22825 98.6877 245.5486 0009479 74.1419 286.0808 14.30944709708429 FO-29 1 24278U 96046B 26178.29218336 -.00000015 00000-0 18032-4 0 9991 2 24278 98.5231 25.7796 0350893 70.2891 293.5744 13.53274805474539 GO-32 1 25397U 98043D 26178.24961874 .00000060 00000-0 46181-4 0 9995 2 25397 99.0071 171.2622 0001556 144.1868 215.9414 14.24430252452761 ISS 1 25544U 98067A 26178.25148564 .00007401 00000-0 14016-3 0 9996 2 25544 51.6322 250.2737 0004284 237.3448 122.7128 15.49452150573314 NO-44 1 26931U 01043C 26178.28688483 .00000091 00000-0 64762-4 0 9999 2 26931 67.0492 218.1495 0006038 265.1683 94.8730 14.31959206291899 SO-50 1 27607U 02058C 26178.20265003 .00000946 00000-0 12876-3 0 9995 2 27607 64.5520 97.9980 0075030 260.6035 98.6583 14.83066892265947 CO-55 1 27844U 03031E 26178.29336883 .00000290 00000-0 14447-3 0 9992 2 27844 98.6736 186.7252 0010153 149.6738 210.5031 14.24341593193118 RS-22 1 27939U 03042A 26178.34173791 .00000635 00000-0 10610-3 0 9993 2 27939 98.3471 2.9875 0010071 233.1070 248.6192 14.73483100217047 CO-65 1 32785U 08021C 26178.25838127 .00004840 00000-0 30559-3 0 9997 2 32785 97.8271 159.8869 0008730 7.6473 352.4887 15.09544451986718 CO-66 1 32791U 08021J 26178.25357930 .00019593 00000-0 61471-3 0 9990 2 32791 97.7515 176.6340 0000601 209.4374 150.6834 15.33086255988832 RS-30 1 32953U 08025A 26178.23869723 .00000108 00000-0 70984-3 0 9991 2 32953 82.5045 349.1866 0018565 290.7760 69.1330 12.43180277820941 SRMSAT 1 37841U 11058D 26178.20632691 .00000372 00000-0 58207-4 0 9999 2 37841 19.9735 358.8265 0011727 314.5587 200.6524 14.11577536759232 ZACUBE-1 1 39417U 13066B 26178.13884487 .00003358 00000-0 26151-3 0 9994 2 39417 97.8047 140.5267 0042184 213.8179 146.0354 15.01240877682224 Delfi-N3xt 1 39428U 13066N 26178.01607594 .00005313 00000-0 46311-3 0 9998 2 39428 97.8343 98.3188 0074360 172.6297 187.6036 14.95175337676097 GOMX-1 1 39430U 13066Q 26178.26362956 .00002057 00000-0 31241-3 0 9996 2 39430 97.6484 18.0903 0129792 45.5773 315.5969 14.69493788671394 LO-74 1 39440U 13066AA 26178.31177139 .00004554 00000-0 42088-3 0 9995 2 39440 97.8904 127.3330 0057383 355.5679 4.5024 14.93842300678509 AO-73 1 39444U 13066AE 26178.19848783 .00007726 00000-0 47725-3 0 9992 2 39444 97.8270 149.8537 0036673 166.8989 193.3201 15.09604737681172 DTUSAT-2 1 40030U 14033W 26178.27671014 .00007888 00000-0 42435-3 0 9992 2 40030 98.0863 176.6450 0007644 188.0269 172.0840 15.15140196654210 LILACSAT-2 1 40908U 15049K 26178.33302722 .00018646 00000-0 31362-3 0 9999 2 40908 97.4637 215.5614 0006479 200.5095 159.5898 15.51771421597325 Horyu-4 1 41340U 16012D 26178.22186065 .01206999 85800-3 12904-2 0 9994 2 41340 30.9822 4.7537 0008993 331.5189 28.4985 16.09051483572426 Lapan A3 1 41603U 16040E 26178.30773625 .00003963 00000-0 12589-3 0 9991 2 41603 97.1487 174.1210 0009603 350.3537 9.7520 15.33168965556367 CAS-2T 1 41847U 16066G 26178.21399966 .00001654 00000-0 23813-3 0 9998 2 41847 98.3821 253.8357 0342893 99.1618 264.8526 14.44725785506240 TechnoSat 1 42829U 17042E 26178.22239608 .00003055 00000-0 21851-3 0 9998 2 42829 97.4292 335.4994 0019250 63.0980 297.2212 15.05019291488211 AO-91 1 43017U 17073E 26177.86511221 .00006924 00000-0 30344-3 0 9990 2 43017 97.4694 44.8822 0148601 295.5005 63.0920 15.12844339466859 S-Net D 1 43186U 18014G 26178.29197378 .00005662 00000-0 29169-3 0 9995 2 43186 97.5361 83.0197 0007832 356.9933 3.1252 15.16763606460296 S-Net B 1 43187U 18014H 26178.30362343 .00005127 00000-0 26469-3 0 9990 2 43187 97.5364 83.0183 0008281 351.4081 8.7009 15.16733675460292 S-Net A 1 43188U 18014J 26178.29079630 .00005727 00000-0 29495-3 0 9991 2 43188 97.5374 83.2164 0008210 352.2012 7.9092 15.16772032460293 S-Net C 1 43189U 18014K 26178.24157693 .00004962 00000-0 25631-3 0 9991 2 43189 97.5389 83.2436 0009300 343.0033 17.0887 15.16725049458831 Ten-Koh 1 43677U 18084G 26178.11019218 .00001627 00000-0 12584-3 0 9994 2 43677 98.0752 10.8926 0011194 86.0204 274.2299 15.02973522417656 PO-101 1 43678U 18084H 26178.23959748 .00001956 00000-0 16026-3 0 9999 2 43678 98.1203 14.8864 0013025 138.6992 221.5218 15.00493685417726 QO-100 1 43700U 18090A 26178.16974252 .00000156 00000-0 00000-0 0 9994 2 43700 0.0097 15.5646 0002144 113.3726 233.2389 1.00270707 27770 MinXSS-2 1 43758U 18099A 26178.24576737 .00039897 00000-0 77300-3 0 9995 2 43758 97.4540 254.8283 0007542 217.4703 142.6022 15.47572916415680 AO-95 1 43770U 18099N 26177.97399440 .00012361 00000-0 46988-3 0 9997 2 43770 97.4387 238.1847 0007112 318.8869 41.1833 15.26910459414717 SNUSat 2 1 43782U 18099AA 26178.12994854 .00008331 00000-0 36765-3 0 9992 2 43782 97.4059 231.3609 0008622 256.7782 103.2493 15.21981519414541 SnugLite 1 43784U 18099AC 26178.10246814 .00012643 00000-0 47395-3 0 9990 2 43784 97.3869 232.2852 0001742 220.7923 139.3186 15.27385944414832 ITASat 1 1 43786U 18099AE 26178.09978421 .00007273 00000-0 34842-3 0 9992 2 43786 97.4026 229.4136 0011154 323.3169 36.7301 15.19174435414418 EAGLET 1 1 43790U 18099AJ 26178.10564619 .00004083 00000-0 23460-3 0 9999 2 43790 97.4229 227.5114 0009776 317.1947 42.8522 15.13009026413830 ESEO 1 43792U 18099AL 26178.09173992 .00001342 00000-0 10051-3 0 9996 2 43792 97.3973 215.0564 0010230 305.1537 54.8730 15.04278215413299 JO-97 1 43803U 18099AX 26178.14272791 .00018364 00000-0 56045-3 0 9997 2 43803 97.4134 241.0127 0005113 218.5591 141.5287 15.33961591415153 Suomi 100 1 43804U 18099AY 26178.15694359 .00012858 00000-0 46351-3 0 9998 2 43804 97.4187 238.5136 0008763 237.6840 122.3552 15.28639929414945 ISAT 1 43879U 18111D 26177.81039428 .00105419 00000-0 98078-3 0 9996 2 43879 97.5871 113.7827 0003545 164.9246 195.2120 15.67052729412672 UWE-4 1 43880U 18111E 26178.05078895 .00034426 00000-0 68805-3 0 9990 2 43880 97.5849 106.9000 0004316 290.5001 69.5785 15.46723335412303 Sparrow 1 43881U 18111F 26178.10048255 .00188680 00000-0 11154-2 0 9990 2 43881 97.6098 119.9037 0004982 132.4577 227.7111 15.77564722412933 Prox-1 1 44339U 19036A 26177.96398830 .00014034 00000-0 13612-2 0 9998 2 44339 23.9959 48.9319 0005598 147.3873 212.6973 14.90842143374938 Taurus 1 1 44530U 19059C 26178.30211420 .00005796 00000-0 92723-3 0 9990 2 44530 98.6418 343.7586 0007182 279.0909 80.9484 14.72194728360135 TO-108 1 44881U 19093C 26178.27621902 .00000817 00000-0 98104-4 0 9992 2 44881 97.7532 250.2623 0014865 56.9226 303.3415 14.86533425352914 RS-44 1 44909U 19096E 26178.16874641 .00000015 00000-0 58243-5 0 9995 2 44909 82.5226 333.0713 0218477 120.9258 241.3520 12.79749020303621 SALSAT 1 46495U 20068K 26177.95657953 .00008212 00000-0 28601-3 0 9999 2 46495 97.8848 181.6168 0007823 266.2984 93.7361 15.29932421316852 CSS (TIANHE-1) 1 48274U 21035A 26178.27740249 .00022896 00000-0 26515-3 0 9994 2 48274 41.4688 260.5778 0008136 162.4826 197.6295 15.61248881294749 CUTE 1 49263U 21088D 26178.22682339 .00235461 24181-4 54422-3 0 9993 2 49263 97.4157 278.5211 0006530 211.6266 148.4619 15.97169883264151 TeikyoSat 4 1 49396U 21102B 26178.06386549 .00001584 00000-0 10242-3 0 9992 2 49396 97.3666 207.1633 0010370 257.3567 102.6503 15.09540756254211 Z-Sat 1 49399U 21102E 26178.28153014 .00004747 00000-0 23373-3 0 9991 2 49399 97.3326 213.2980 0015687 206.1615 153.8829 15.18337784254979 KOSEN 1 1 49402U 21102H 26177.90632391 .00007947 00000-0 30204-3 0 9990 2 49402 97.3186 219.8748 0014241 166.4064 193.7562 15.26965702255506 HO-113 1 50466U 21131B 26178.25920309 .00000530 00000-0 17738-3 0 9990 2 50466 98.4984 270.5944 0005352 73.3346 286.8430 14.41366378236563 SNUGLITE 2 1 52899U 22065F 26177.87057264 .00000926 00000-0 18445-3 0 9992 2 52899 98.2211 322.6843 0007327 4.0233 356.1027 14.64364066212411 UmKA 1 (RS40S) 1 57172U 23091G 26178.29196988 .00006529 00000-0 29738-3 0 9997 2 57172 97.5052 236.9504 0014290 86.5140 273.7730 15.20931844165548 CubeBel-2 (EU11S) 1 57175U 23091K 26178.26051776 .00014957 00000-0 52593-3 0 9991 2 57175 97.5054 241.5681 0011056 83.9894 276.2605 15.29400372165843 RS-38S 1 57189U 23091Z 26178.24418503 .00018365 00000-0 51957-3 0 9999 2 57189 97.5095 247.9321 0007491 46.4216 313.7648 15.36338341166236 SONATE-2 1 59112U 24043Q 26177.95845668 .00043201 00000-0 54516-3 0 9999 2 59112 97.5532 328.9589 0007313 163.6237 196.5256 15.59436847129410 GRBBeta 1 60237U 24128C 26178.30784282 .00003542 00000-0 24775-3 0 9995 2 60237 61.9879 180.7560 0039378 136.7389 223.6809 15.06697529107798 Curium One 1 60242U 24128H 26178.28466003 .00007369 00000-0 42451-3 0 9998 2 60242 61.9763 170.0072 0038691 132.4972 227.9404 15.12631645107987 ROBUSTA-3A 1 60243U 24128J 26178.25508465 .00005716 00000-0 33998-3 0 9995 2 60243 61.9840 172.6375 0040046 130.2570 230.2039 15.11766130107949 CatSat 1 60246U 24125J 26178.15152632 .00071867 00000-0 87919-3 0 9997 2 60246 97.2080 30.7896 0022246 145.0466 215.2257 15.59863021108947 HYPERVIEW-1G (RS66S) 1 61772U 24199AP 26177.77067532 .00148755 00000-0 84483-3 0 9998 2 61772 97.2856 57.9913 0005987 186.8100 173.3087 15.78571118136181 AO-123 1 61781U 24199AY 26178.26440915 .00008052 00000-0 23288-3 0 9994 2 61781 97.2995 46.8449 0011873 272.5318 87.4567 15.35814522135472 JINJUSat 1B 1 63210U 25052A 26178.19389660 .00019134 00000-0 58653-3 0 9990 2 63210 97.4003 74.9642 0005116 69.5880 290.5912 15.33812153 71635 NUSHSAT 1 1 63211U 25052B 26178.15616049 .00022181 00000-0 62670-3 0 9991 2 63211 97.3977 75.5262 0004858 75.3314 284.8469 15.36353819 71678 TEVEL2-4 1 63213U 25052D 26178.22278874 .00019955 00000-0 58985-3 0 9990 2 63213 97.3900 74.6325 0004820 85.3074 274.8720 15.34955968 71657 TEVEL2-5 1 63214U 25052E 26178.24443246 .00020235 00000-0 60145-3 0 9994 2 63214 97.3898 74.5989 0004805 85.8149 274.3643 15.34779098 71657 TEVEL2-6 1 63215U 25052F 26178.25699217 .00020324 00000-0 60478-3 0 9995 2 63215 97.3903 74.5963 0004643 86.9832 273.1942 15.34743866 71651 TEVEL2-1 1 63217U 25052H 26178.22433366 .00018970 00000-0 57458-3 0 9993 2 63217 97.3871 74.1759 0004996 94.4509 265.7304 15.34194637 71635 TEVEL2-3 1 63218U 25052J 26178.21860599 .00019485 00000-0 58900-3 0 9990 2 63218 97.3877 74.1933 0004859 95.2492 264.9305 15.34253406 71636 TEVEL2-2 1 63219U 25052K 26178.22458635 .00019407 00000-0 58752-3 0 9995 2 63219 97.3873 74.1789 0005009 94.7391 265.4424 15.34205693 71635 TEVEL2-9 1 63237U 25052AD 26178.21505297 .00017853 00000-0 57551-3 0 9990 2 63237 97.3934 73.5229 0008294 104.2052 256.0111 15.32198035 71565 TEVEL2-7 1 63238U 25052AE 26178.19258945 .00017572 00000-0 57189-3 0 9998 2 63238 97.3939 73.4122 0008360 104.5251 255.6918 15.31893747 71550 TEVEL2-8 1 63239U 25052AF 26177.22110573 .00017980 00000-0 58597-3 0 9993 2 63239 97.3937 72.4192 0008385 107.6731 252.5427 15.31844407 71403 SPIRONE 1 66657U 25274H 26178.30426161 .00002181 00000-0 21189-3 0 9993 2 66657 97.7481 107.4511 0011715 349.1949 10.9018 14.93587633 31733 K-HERO 1 66660U 25274L 26178.30603595 .00001953 00000-0 18832-3 0 9992 2 66660 97.7488 107.6213 0013714 352.0873 8.0128 14.94000791 31742 SNUGLITE-III DURI 1 66661U 25274M 26178.29356050 .00002167 00000-0 20808-3 0 9996 2 66661 97.7486 107.6296 0014340 352.7667 7.3344 14.94036951 31745 SAKHACUBE-CHOLBON 1 67290U 25313AU 26178.13410174 .00010024 00000-0 40334-3 0 9997 2 67290 97.3939 253.0450 0007960 327.4658 32.6089 15.25058671 27492 RS95S (QMR-KWT-2) 1 67291U 25313AV 26178.17854854 .00014261 00000-0 54755-3 0 9998 2 67291 97.3929 253.2851 0007420 323.6036 36.4697 15.26540837 27519 Ten-Koh2 1 68261U 25241B 26177.98342398 .00005109 00000-0 22158-3 0 9992 2 68261 51.6682 273.0058 0005359 170.3849 189.7232 15.24002030 16402 JACK-002 1 68417U 26067B 26177.84221042 .00007568 00000-0 35954-3 0 9998 2 68417 97.4566 136.3137 0001012 165.3806 194.7458 15.19505775 13414 DISCO 2 1 68431U 26067R 26177.86532791 .00008418 00000-0 40288-3 0 9993 2 68431 97.4595 136.3248 0001728 27.6762 332.4565 15.19213502 13414 HADES-SA (SpinnyONE) 1 68446U 26067AG 26177.83823501 .00020238 00000-0 95712-3 0 9994 2 68446 97.4405 135.9916 0008649 56.9351 303.2713 15.19378789 13392 PARUS-6U1 1 68456U 26067AS 26178.14494547 .00006068 00000-0 30488-3 0 9998 2 68456 97.4552 136.3556 0006815 45.3993 314.7796 15.17618311 13448 SAL-E 1 68458U 26067AU 26178.13870375 .00008232 00000-0 40899-3 0 9998 2 68458 97.4477 136.2797 0007395 53.6473 306.5442 15.17895885 13441 FSI-SAT 2 1 68792U 26088A 26178.31283558 .00004371 00000-0 29591-3 0 9999 2 68792 97.5066 327.3185 0015670 75.2705 285.0258 15.06910023 9816 OrigamiSat 2 1 68795U 26088D 26177.97726923 .00012785 00000-0 81077-3 0 9996 2 68795 97.5067 327.1568 0015535 49.3937 310.8641 15.08946934 9772 ARICA 2 1 68796U 26088E 26178.31061528 .00004626 00000-0 29968-3 0 9995 2 68796 97.5062 327.4659 0016477 47.9059 312.3568 15.08502833 9824 WASEDA-SAT-ZERO-II 1 68797U 26088F 26178.17215321 .00006816 00000-0 43671-3 0 9992 2 68797 97.5060 327.3424 0016208 47.9987 312.2619 15.08747531 9804 MANGARO-II-Piscus 1 68798U 26088G 26178.22810209 .00004700 00000-0 30112-3 0 9991 2 68798 97.5073 327.4290 0019976 50.1186 310.1796 15.08853757 9815 IO-86 1 40931U 25360.30710720 .00000000 00000-0 12800-3 0 00 2 40931 6.0006 332.5373 0012733 338.8432 8.1437 14.79075515 01 LILIUM-4 1 71922C 26067AC 26089.50133053 -.00014632 00000+0 -74472-3 0 04 2 71922 97.4497 49.1617 0004341 5.9603 355.7042 15.16896692 16 /EX